Simultaneous Nadir Overpasses (SNOs) Predictions

Prediction of SNOs between AQUA and METOP-B Satellite Orbit:

Table of predicted SNOs for the next 14.0 days since TLE Epoch: 6/8/2018
Index Date (AQUA) Time (AQUA) Lat,Lon (AQUA) SZA (AQUA ) Date (METOP-B) Time (METOP-B) Lat,Lon (METOP-B) SZA (METOP-B ) Distance(km) Time Diff (sec)
1 06/11/2018 00:04:08 -73.56, -6.10 129.52 06/11/2018 00:02:58 -73.54, -7.60 129.48 47.37 70
2 06/11/2018 00:53:43 73.95, 160.69 50.89 06/11/2018 00:53:29 73.97, 160.74 50.91 2.51 14
3 06/11/2018 01:43:10 -74.03, -31.84 129.04 06/11/2018 01:44:10 -74.01, -31.83 129.06 1.60 60
4 06/13/2018 19:38:26 -73.80, 59.81 129.44 06/13/2018 19:37:13 -73.75, 59.30 129.46 17.05 73
5 06/13/2018 20:27:56 73.94,-132.85 50.71 06/13/2018 20:27:49 73.93,-132.94 50.71 3.12 7
6 06/13/2018 21:17:23 -74.01, 34.64 129.22 06/13/2018 21:18:29 -74.02, 34.61 129.21 2.05 66
7 06/16/2018 15:12:42 -73.90, 126.05 129.45 06/16/2018 15:11:30 -73.91, 126.09 129.43 2.15 72
8 06/16/2018 16:02:10 73.93, -66.40 50.59 06/16/2018 16:02:09 73.94, -66.51 50.60 3.36 1
9 06/16/2018 16:51:38 -74.05, 100.99 129.29 06/16/2018 16:52:49 -74.04, 101.05 129.31 2.32 71
10 06/19/2018 10:46:56 -73.89,-167.50 129.52 06/19/2018 10:45:50 -73.92,-167.48 129.48 3.57 66
11 06/19/2018 11:36:24 73.94, 0.03 50.54 06/19/2018 11:36:29 73.95, -0.08 50.55 3.63 5
12 06/19/2018 12:25:55 -74.20, 167.08 129.19 06/19/2018 12:27:06 -74.19, 167.85 129.23 23.15 71
13 06/22/2018 06:21:09 -73.89,-101.06 129.52 06/22/2018 06:20:10 -73.88,-101.17 129.52 3.71 59
14 06/22/2018 07:10:37 73.95, 66.45 50.54 06/22/2018 07:10:48 73.96, 66.35 50.56 3.40 11




NCC Satellite Simultaneous Nadir Overpasses (SNOs) Prediction Service
